CHINASAT 9A (ZX 9A)

Last updated on Jan. 15, 2021, 6:31 a.m. UTC

1 42763U 17035A   21014.93035743 -.00000320  00000-0  00000-0 0  9996
2 42763   0.0121  93.0515 0000593 203.2149 254.6671  1.00272309 13806
UTC
Height (km)
Latitude
Longitude
Inclination
Orbital Period
UTC large
Height (km)
Speed (km/s)
/
Latitude / Longitude
Inclination (degrees)
Orbital Period (minutes)
Azimuth
Elevation
Range (km)
Doppler Factor
iOS Compass Heading
iOS Angle

Next 30 passes for location: Hong Kong

Rise time Rise Azimuth (degrees) Set time Set Azimuth (degrees) Duration Max altitude (degrees)

No matching passes for this satellites